Dumas, TX

11:13 AM CDT on July 27, 2017 (GMT -0500)
Moore County

Weather History for KDUX - February, 2014

Change the Weather History Date:

Monday, February 3, 2014

  Actual Average (KDHT) Record (KDHT)
Temperature  
Mean Temperature 32 °F -  
Max Temperature 45 °F 47 °F 71 °F (1987)
Min Temperature 18 °F 21 °F -13 °F (2011)
Degree Days  
Heating Degree Days 34    
Moisture  
Dew Point 25 °F    
Average Humidity 78    
Maximum Humidity 91    
Minimum Humidity 52    
Precipitation  
Precipitation 0.00 in - - ()
Sea Level Pressure  
Sea Level Pressure 29.93 in    
Wind  
Wind Speed 13 mph (South)    
Max Wind Speed 22 mph    
Max Gust Speed 26 mph    
Visibility 10 miles    
Events      
Averages and records for this station are not official NWS values.
T = Trace of Precipitation, MM = Missing Value Source: NWS Daily Summary

Daily Weather History Graph

Daily Weather History Graph

Search for Another Location

Airport or City:

Trip Planner

Search our weather history database for the weather conditions in past years. The results will help you decide how hot, cold, wet, or windy it might be!

Date:

Astronomy

Feb. 03, 2014 Rise Set
Actual Time 7:46 AM CST 6:17 PM CST
Civil Twilight 7:19 AM CST 6:44 PM CST
Nautical Twilight 6:49 AM CST 7:14 PM CST
Astronomical Twilight 6:19 AM CST 7:44 PM CST
Moon 10:00 AM CST (2/3) 10:58 PM CST (2/3)
Length of Visible Light 11h 24m
Length of Day
10h 30m
Waxing Crescent, 20% of the Moon is Illuminated
Feb 3
Waxing Crescent
Feb 6
First Quarter
Feb 14
Full
Feb 22
Last Quarter
Mar 1
New

Hourly Weather History & Observations

Time (CST) Temp. Windchill Dew Point Humidity Pressure Visibility Wind Dir Wind Speed Gust Speed Precip Events Conditions
12:15 AM 22.1 °F 12.0 °F 15.8 °F 77% 30.09 in 10.0 mi SSE 9.2 mph - N/A   Clear
12:35 AM 21.2 °F 10.1 °F 15.8 °F 80% 30.09 in 10.0 mi South 10.4 mph - N/A   Clear
12:55 AM 20.7 °F 9.5 °F 16.5 °F 84% 30.08 in 10.0 mi South 10.4 mph - N/A   Clear
1:15 AM 21.0 °F 9.9 °F 17.2 °F 85% 30.07 in 10.0 mi SSE 10.4 mph - N/A   Clear
1:35 AM 20.8 °F 9.7 °F 17.4 °F 87% 30.05 in 10.0 mi SSE 10.4 mph - N/A   Clear
1:55 AM 19.9 °F 8.6 °F 16.7 °F 87% 30.04 in 10.0 mi SSE 10.4 mph - N/A   Clear
2:15 AM 19.6 °F 8.9 °F 16.9 °F 89% 30.04 in 10.0 mi SSE 9.2 mph - N/A   Clear
2:35 AM 18.7 °F 8.6 °F 16.3 °F 91% 30.04 in 10.0 mi SSE 8.1 mph - N/A   Clear
2:55 AM 19.4 °F 8.6 °F 17.2 °F 91% 30.04 in 10.0 mi SSE 9.2 mph - N/A   Scattered Clouds
3:15 AM 22.6 °F 11.9 °F 19.4 °F 87% 30.05 in 10.0 mi SSE 10.4 mph - N/A   Overcast
3:35 AM 23.0 °F 12.4 °F 19.4 °F 86% 30.04 in 10.0 mi SSE 10.4 mph - N/A   Overcast
3:55 AM 23.9 °F 14.2 °F 19.9 °F 85% 30.03 in 10.0 mi SSE 9.2 mph - N/A   Overcast
4:15 AM 23.9 °F 14.2 °F 19.8 °F 84% 30.02 in 10.0 mi SSE 9.2 mph - N/A   Overcast
4:35 AM 25.3 °F 15.3 °F 20.7 °F 82% 30.03 in 10.0 mi SSE 10.4 mph - N/A   Overcast
4:55 AM 25.5 °F 14.3 °F 20.3 °F 81% 30.01 in 10.0 mi SSE 12.7 mph - N/A   Overcast
5:15 AM 25.7 °F 15.1 °F 20.8 °F 82% 30.01 in 10.0 mi South 11.5 mph - N/A   Overcast
5:35 AM 26.1 °F 15.6 °F 21.2 °F 82% 30.01 in 10.0 mi South 11.5 mph - N/A   Overcast
5:55 AM 26.2 °F 15.8 °F 21.6 °F 82% 30.01 in 10.0 mi South 11.5 mph - N/A   Overcast
6:15 AM 26.1 °F 15.0 °F 21.2 °F 82% 30.00 in 10.0 mi South 12.7 mph - N/A   Overcast
6:35 AM 26.2 °F 15.2 °F 21.9 °F 84% 30.00 in 10.0 mi SSE 12.7 mph - N/A   Overcast
6:55 AM 26.4 °F 16.0 °F 22.3 °F 84% 30.01 in 10.0 mi South 11.5 mph - N/A   Overcast
7:15 AM 27.0 °F 16.1 °F 23.0 °F 85% 30.01 in 10.0 mi South 12.7 mph - N/A   Overcast
7:35 AM 27.3 °F 16.1 °F 23.5 °F 86% 30.00 in 10.0 mi South 13.8 mph - N/A   Overcast
7:55 AM 28.0 °F 16.1 °F 24.4 °F 86% 30.00 in 10.0 mi South 16.1 mph 19.6 mph N/A   Overcast
8:15 AM 28.4 °F 17.0 °F 25.2 °F 88% 30.00 in 7.0 mi South 15.0 mph - N/A   Overcast
8:35 AM 28.9 °F 15.8 °F 25.3 °F 86% 30.00 in 7.0 mi South 20.7 mph 25.3 mph N/A   Overcast
8:55 AM 29.3 °F 16.6 °F 25.3 °F 85% 30.01 in 7.0 mi South 19.6 mph 24.2 mph N/A   Overcast
9:15 AM 29.8 °F 17.7 °F 25.7 °F 85% 30.01 in 7.0 mi South 18.4 mph 23.0 mph N/A   Overcast
9:35 AM 30.2 °F 18.1 °F 26.1 °F 85% 30.01 in 5.0 mi South 18.4 mph 25.3 mph N/A   Overcast
9:55 AM 30.9 °F 18.7 °F 26.4 °F 83% 30.00 in 5.0 mi South 19.6 mph - N/A   Haze
10:15 AM 31.6 °F 20.4 °F 26.6 °F 82% 30.01 in 7.0 mi South 17.3 mph 20.7 mph N/A   Overcast
10:35 AM 32.0 °F 19.8 °F 27.0 °F 82% 30.01 in 7.0 mi SSW 20.7 mph 25.3 mph N/A   Overcast
10:55 AM 32.2 °F 19.7 °F 27.1 °F 82% 30.01 in 7.0 mi SSW 21.9 mph - N/A   Overcast
11:15 AM 32.9 °F 21.3 °F 27.5 °F 81% 30.00 in 10.0 mi SSW 19.6 mph 24.2 mph N/A   Overcast
11:35 AM 33.6 °F 22.6 °F 27.5 °F 78% 30.00 in 7.0 mi SSW 18.4 mph - N/A   Overcast
11:55 AM 34.7 °F 24.3 °F 28.2 °F 77% 29.98 in 7.0 mi South 17.3 mph 24.2 mph N/A   Overcast
12:15 PM 35.8 °F 25.4 °F 28.4 °F 75% 29.96 in 10.0 mi SSW 18.4 mph 23.0 mph N/A   Overcast
12:35 PM 36.3 °F 26.8 °F 28.2 °F 72% 29.95 in 10.0 mi South 16.1 mph - N/A   Overcast
12:55 PM 37.9 °F 29.2 °F 28.9 °F 70% 29.93 in 10.0 mi SSW 15.0 mph 24.2 mph N/A   Overcast
1:15 PM 40.1 °F 31.3 °F 29.3 °F 65% 29.91 in 10.0 mi SSW 17.3 mph 24.2 mph N/A   Mostly Cloudy
1:35 PM 41.7 °F 33.7 °F 29.3 °F 61% 29.89 in 10.0 mi South 16.1 mph 24.2 mph N/A   Scattered Clouds
1:55 PM 43.2 °F 34.5 °F 29.1 °F 58% 29.88 in 10.0 mi South 20.7 mph 24.2 mph N/A   Clear
2:15 PM 43.7 °F 35.4 °F 28.6 °F 55% 29.87 in 10.0 mi South 19.6 mph 25.3 mph N/A   Clear
2:35 PM 44.1 °F 36.2 °F 28.0 °F 53% 29.86 in 10.0 mi South 18.4 mph 26.5 mph N/A   Clear
2:55 PM 44.6 °F 36.1 °F 28.2 °F 53% 29.85 in 10.0 mi South 21.9 mph 25.3 mph N/A   Clear
3:15 PM 45.0 °F 37.6 °F 28.4 °F 52% 29.84 in 10.0 mi South 17.3 mph 26.5 mph N/A   Clear
3:35 PM 44.8 °F 36.9 °F 28.2 °F 52% 29.84 in 10.0 mi South 19.6 mph 24.2 mph N/A   Clear
3:55 PM 45.1 °F 37.6 °F 28.4 °F 52% 29.83 in 10.0 mi South 18.4 mph 25.3 mph N/A   Clear
4:15 PM 44.1 °F 35.9 °F 28.2 °F 54% 29.83 in 10.0 mi South 19.6 mph 24.2 mph N/A   Clear
4:35 PM 42.8 °F 34.8 °F 28.2 °F 56% 29.82 in 10.0 mi SSE 17.3 mph 25.3 mph N/A   Clear
4:55 PM 42.6 °F 33.8 °F 28.6 °F 58% 29.82 in 10.0 mi South 20.7 mph - N/A   Clear
5:15 PM 42.1 °F 33.3 °F 28.8 °F 59% 29.82 in 10.0 mi SSE 19.6 mph 24.2 mph N/A   Clear
5:35 PM 39.9 °F 30.2 °F 28.9 °F 65% 29.82 in 10.0 mi South 20.7 mph 26.5 mph N/A   Clear
5:55 PM 37.6 °F 27.4 °F 28.9 °F 71% 29.82 in 10.0 mi SSE 19.6 mph 24.2 mph N/A   Clear
6:15 PM 35.6 °F 25.9 °F 28.9 °F 77% 29.82 in 10.0 mi SSE 16.1 mph 23.0 mph N/A   Clear
6:35 PM 34.9 °F 24.6 °F 29.1 °F 79% 29.82 in 10.0 mi SSE 17.3 mph - N/A   Clear
6:55 PM 34.7 °F 24.0 °F 29.3 °F 81% 29.83 in 10.0 mi SSE 18.4 mph - N/A   Mostly Cloudy
7:15 PM 34.9 °F 24.6 °F 29.8 °F 82% 29.83 in 10.0 mi SSE 17.3 mph - N/A   Overcast
7:35 PM 34.7 °F 24.3 °F 30.2 °F 84% 29.82 in 10.0 mi SSE 17.3 mph 25.3 mph N/A   Overcast
7:55 PM 34.3 °F 23.9 °F 29.7 °F 83% 29.82 in 10.0 mi SSE 17.3 mph 23.0 mph N/A   Overcast
8:15 PM 34.0 °F 23.0 °F 30.0 °F 85% 29.83 in 10.0 mi SSE 18.4 mph 21.9 mph N/A   Overcast
8:35 PM 33.8 °F 23.2 °F 29.8 °F 85% 29.82 in 10.0 mi SSE 17.3 mph - N/A   Overcast
8:55 PM 33.1 °F 22.6 °F 29.8 °F 88% 29.82 in 10.0 mi SSE 16.1 mph - N/A   Overcast
9:15 PM 30.7 °F 19.2 °F 25.2 °F 80% 29.83 in 10.0 mi SE 17.3 mph - N/A   Overcast
9:35 PM 30.2 °F 20.8 °F 24.6 °F 80% 29.84 in 10.0 mi SE 11.5 mph - N/A   Overcast
9:55 PM 30.0 °F 19.5 °F 24.6 °F 80% 29.83 in 10.0 mi SSE 13.8 mph - N/A   Overcast
10:15 PM 29.3 °F 18.2 °F 24.3 °F 81% 29.83 in 10.0 mi SSE 15.0 mph 18.4 mph N/A   Overcast
10:35 PM 28.9 °F 18.6 °F 24.1 °F 82% 29.84 in 10.0 mi SSE 12.7 mph - N/A   Overcast
10:55 PM 28.9 °F 19.8 °F 24.4 °F 83% 29.84 in 10.0 mi SSE 10.4 mph - N/A   Overcast
11:15 PM 28.9 °F 18.6 °F 24.8 °F 84% 29.83 in 10.0 mi SSE 12.7 mph - N/A   Overcast
11:35 PM 28.4 °F 19.1 °F 24.8 °F 86% 29.84 in 10.0 mi SSE 10.4 mph - N/A   Overcast
11:55 PM 28.4 °F 19.1 °F 25.3 °F 88% 29.83 in 10.0 mi SE 10.4 mph - N/A   Overcast